国家海洋和大气管理局 19号 (NOAA 19)

导读

NOAA 19是由美国研制发射的极轨气象卫星,于2009年2月6日顺利进入预定轨道,隶属于美国国家海洋和大气管理局的NOAA卫星系列。它主要承担全球气象观测、气候监测任务,可获取大气温度、湿度以及海面温度等关键气象数据,为天气预报、气候研究和灾害预警提供支撑,目前仍在轨持续服务气象领域。

Basic Information
目录编号:
33591
目录名称:
NOAA 19
国际标识:
2009-005A
轨道中心:
EARTH
卫星名称:
国家海洋和大气管理局 19号
卫星全名:
国家海洋和大气管理局 19号 (NOAA 19)
卫星状态:
在轨 (已飞行6427 天)
发射日期:
2009-02-06 UTC
国别 :
美国 (US)
星等 :
--
This satellite is enrolled in the Space Conjunction Data Service (SCDS) and the current flight risk assessment level is: High Risk
Orbit Information
数据来源 国际轨道数据
星历时间: 2026-09-12T02:20:00+0800
9小时前
查看轨道信息
半长轴: 7225.607km
偏心率: 0.0014457
轨道倾角: 98.945°
近地点辐角 142.289°
升交点赤经 325.670°
平近点角 217.930°
近地点: 837.023km
远地点: 857.917km
周期: 101.876分钟
每日圈数: 14.134852
Detailed Information
卫星平台:
Advanced TIROS-N
平衡模式:
三轴稳定
覆盖范围:
美洲
制造商(研发单位):
洛克希德·马丁公司
制造商所在国:
美国
使用方式:
暂无
Satellite Introduction
NOAA卫星是美国国家海洋大气局的第三代实用气象观测卫星,第一代称为“泰罗斯”(TIROS)系列(1960-1965年),第二代称为“艾托斯”(ITOS)/NOAA系列(1970-1976年),其后运行的第三代称为TIROS--N/NOAA系列。其轨道是接近正圆的太阳同步轨道,轨道高度为870千米和833千米,轨道倾角为98.9°和98.7°,周期为101.4分钟。NOAA的应用目的是日常的气象业务,平时有两颗卫星运行。由于一颗卫星可以每天至少可以对地面同一地区进行两次观测,所以两颗卫星就可以进行四次以上的观测。该卫星仍在工作。
2D Orbit Map
3D Orbit Map
Orbit Altitude Analysis Chart
Orbit Inclination Analysis Chart
Orbit Comprehensive Analysis Chart
View Comprehensive Chart
Conjunction Data List
Event ID Objects TCA Miss Dist (km) Collision Risk Probability Collision Risk Index (CRI) Action
CDM_260914-134800-441903-359122
NOAA 19 (33591)
2026-09-14T
13:48:42+0000
0.409 km
远距离
3.107908E-4 高风险 0.85
CDM_260912-133303-066903-359128
NOAA 19 (33591)
2026-09-12T
13:33:35+0000
1.476 km
极远距离
6.789032E-6 低风险 0.52
CDM_260912-132803-359105-429229
NOAA 19 (33591)
2026-09-12T
13:28:43+0000
2.375 km
极远距离
1.464581E-6 低风险 0.38
Miss Distance Evolution Trend with All Objects
Collision Probability Evolution Trend with All Objects